TimeCDT,TemperatureF,Dew PointF,Humidity,Sea Level PressureIn,VisibilityMPH,Wind Direction,Wind SpeedMPH,Gust SpeedMPH,PrecipitationIn,Events,Conditions,WindDirDegrees,DateUTC
12:53 AM,39.9,16.0,38,29.96,10.0,NW,16.1,-,N/A,,Clear,310,2012-10-19 05:53:00
1:53 AM,39.0,14.0,36,29.96,10.0,WNW,17.3,-,N/A,,Clear,300,2012-10-19 06:53:00
2:53 AM,37.9,14.0,38,29.96,10.0,NW,13.8,-,N/A,,Clear,310,2012-10-19 07:53:00
3:53 AM,37.9,12.0,35,29.95,10.0,WNW,15.0,-,N/A,,Clear,300,2012-10-19 08:53:00
4:53 AM,34.0,10.9,38,29.95,10.0,NW,10.4,-,N/A,,Clear,310,2012-10-19 09:53:00
5:53 AM,30.0,12.0,47,29.97,10.0,NW,8.1,-,N/A,,Clear,310,2012-10-19 10:53:00
6:53 AM,26.1,9.0,49,29.99,10.0,NW,6.9,-,N/A,,Clear,320,2012-10-19 11:53:00
7:53 AM,24.1,9.0,53,30.00,10.0,NW,9.2,-,N/A,,Clear,320,2012-10-19 12:53:00
8:53 AM,30.0,10.0,43,29.99,10.0,NW,8.1,-,N/A,,Clear,310,2012-10-19 13:53:00
9:53 AM,37.9,10.9,33,29.99,10.0,WNW,13.8,-,N/A,,Clear,290,2012-10-19 14:53:00
10:53 AM,48.0,12.9,24,29.96,10.0,NW,15.0,-,N/A,,Clear,310,2012-10-19 15:53:00
11:53 AM,55.0,8.1,15,29.93,10.0,NW,17.3,-,N/A,,Clear,310,2012-10-19 16:53:00
12:53 PM,60.1,8.1,13,29.91,10.0,WNW,13.8,23.0,N/A,,Clear,300,2012-10-19 17:53:00
1:53 PM,62.1,8.1,12,29.86,10.0,NW,13.8,19.6,N/A,,Clear,310,2012-10-19 18:53:00
2:53 PM,63.0,10.9,13,29.83,10.0,WNW,8.1,-,N/A,,Clear,290,2012-10-19 19:53:00
3:53 PM,66.0,19.9,17,29.80,10.0,West,12.7,-,N/A,,Clear,270,2012-10-19 20:53:00
4:53 PM,64.9,21.9,19,29.79,10.0,WNW,6.9,-,N/A,,Clear,300,2012-10-19 21:53:00
5:53 PM,66.9,23.0,19,29.79,10.0,WNW,3.5,-,N/A,,Clear,290,2012-10-19 22:53:00
6:53 PM,54.0,28.0,37,29.82,10.0,Calm,Calm,-,N/A,,Clear,0,2012-10-19 23:53:00
7:53 PM,48.9,23.0,36,29.83,10.0,East,3.5,-,N/A,,Clear,100,2012-10-20 00:53:00
8:53 PM,45.0,19.0,36,29.83,10.0,ESE,4.6,-,N/A,,Clear,110,2012-10-20 01:53:00
9:53 PM,39.9,17.1,40,29.82,10.0,ESE,8.1,-,N/A,,Clear,110,2012-10-20 02:53:00
10:53 PM,39.9,16.0,38,29.81,10.0,ESE,6.9,-,N/A,,Clear,110,2012-10-20 03:53:00
11:53 PM,37.0,15.1,41,29.78,10.0,ESE,8.1,-,N/A,,Clear,110,2012-10-20 04:53:00